Time,TemperatureF,DewpointF,PressureIn,WindDirection,WindDirectionDegrees,WindSpeedMPH,WindSpeedGustMPH,Humidity,HourlyPrecipIn,Conditions,Clouds,dailyrainin,SolarRadiationWatts/m^2,SoftwareType,DateUTC
2013-01-23 00:03:00,9.9,3.2,30.14,WNW,300,3.0,10.0,74,0.00,,,0.00,0.0,meteohub,2013-01-23 05:03:00,
2013-01-23 00:05:00,9.7,3.4,30.14,WSW,245,0.0,10.0,75,0.00,,,0.00,0.0,meteohub,2013-01-23 05:05:00,
2013-01-23 00:06:00,9.7,3.4,30.14,WSW,245,0.0,10.0,75,0.00,,,0.00,0.0,meteohub,2013-01-23 05:06:00,
2013-01-23 00:11:00,9.7,3.4,30.14,WSW,245,0.0,6.0,75,0.00,,,0.00,0.0,meteohub,2013-01-23 05:11:00,
2013-01-23 00:16:00,9.5,3.6,30.14,WSW,245,0.0,6.0,76,0.00,,,0.00,0.0,meteohub,2013-01-23 05:16:00,
2013-01-23 00:21:00,9.3,3.4,30.14,WSW,245,0.0,2.0,76,0.00,,,0.00,0.0,meteohub,2013-01-23 05:21:00,
2013-01-23 00:27:00,9.3,3.4,30.13,WSW,245,0.0,2.0,76,0.00,,,0.00,0.0,meteohub,2013-01-23 05:27:00,
2013-01-23 00:32:00,9.1,3.2,30.13,WSW,245,0.0,2.0,76,0.00,,,0.00,0.0,meteohub,2013-01-23 05:32:00,
2013-01-23 00:37:00,8.8,2.8,30.13,WSW,245,0.0,0.0,76,0.00,,,0.00,0.0,meteohub,2013-01-23 05:37:00,
2013-01-23 00:42:00,8.4,2.5,30.13,WSW,245,0.0,0.0,76,0.00,,,0.00,0.0,meteohub,2013-01-23 05:42:00,
2013-01-23 00:47:00,8.1,2.1,30.13,WSW,245,0.0,1.0,76,0.00,,,0.00,0.0,meteohub,2013-01-23 05:47:00,
2013-01-23 00:52:00,7.9,2.1,30.13,WNW,290,5.0,5.0,77,0.00,,,0.00,0.0,meteohub,2013-01-23 05:52:00,
2013-01-23 00:57:00,7.9,2.1,30.13,SW,232,3.0,9.0,77,0.00,,,0.00,0.0,meteohub,2013-01-23 05:57:00,
2013-01-23 01:02:00,7.9,2.1,30.13,WNW,283,0.0,9.0,77,0.00,,,0.00,0.0,meteohub,2013-01-23 06:02:00,
2013-01-23 01:07:00,7.9,1.9,30.13,WNW,292,0.0,9.0,76,0.00,,,0.00,0.0,meteohub,2013-01-23 06:07:00,
2013-01-23 01:12:00,7.9,1.6,30.13,NW,304,6.0,9.0,75,0.00,,,0.00,0.0,meteohub,2013-01-23 06:12:00,
2013-01-23 01:17:00,8.1,1.6,30.13,West,272,5.0,9.0,74,0.00,,,0.00,0.0,meteohub,2013-01-23 06:17:00,
2013-01-23 01:22:00,8.2,1.0,30.13,WSW,257,0.0,12.0,72,0.00,,,0.00,0.0,meteohub,2013-01-23 06:22:00,
2013-01-23 01:27:00,8.2,0.9,30.13,WNW,288,0.0,12.0,71,0.00,,,0.00,0.0,meteohub,2013-01-23 06:27:00,
2013-01-23 01:32:00,8.2,0.1,30.14,WNW,291,0.0,12.0,69,0.00,,,0.00,0.0,meteohub,2013-01-23 06:32:00,
2013-01-23 01:37:00,8.2,-0.2,30.14,WNW,290,1.0,10.0,68,0.00,,,0.00,0.0,meteohub,2013-01-23 06:37:00,
2013-01-23 01:42:00,8.2,-0.4,30.14,NNW,338,2.0,10.0,67,0.00,,,0.00,0.0,meteohub,2013-01-23 06:42:00,
2013-01-23 01:47:00,8.2,-0.8,30.14,WNW,294,7.0,11.0,66,0.00,,,0.00,0.0,meteohub,2013-01-23 06:47:00,
2013-01-23 01:53:00,8.1,-0.9,30.14,WNW,298,1.0,11.0,66,0.00,,,0.00,0.0,meteohub,2013-01-23 06:53:00,
2013-01-23 01:58:00,8.1,-1.3,30.14,WNW,295,5.0,9.0,65,0.00,,,0.00,0.0,meteohub,2013-01-23 06:58:00,
2013-01-23 02:03:00,8.1,-1.3,30.15,WNW,290,5.0,9.0,65,0.00,,,0.00,0.0,meteohub,2013-01-23 07:03:00,
2013-01-23 02:08:00,7.9,-1.5,30.15,NNW,328,1.0,10.0,65,0.00,,,0.00,0.0,meteohub,2013-01-23 07:08:00,
2013-01-23 02:13:00,7.9,-1.5,30.15,WNW,301,0.0,10.0,65,0.00,,,0.00,0.0,meteohub,2013-01-23 07:13:00,
2013-01-23 02:18:00,7.7,-1.7,30.15,SW,236,1.0,9.0,65,0.00,,,0.00,0.0,meteohub,2013-01-23 07:18:00,
2013-01-23 02:23:00,7.5,-1.8,30.15,West,259,1.0,9.0,65,0.00,,,0.00,0.0,meteohub,2013-01-23 07:23:00,
2013-01-23 02:28:00,7.5,-1.5,30.15,WNW,285,0.0,7.0,66,0.00,,,0.00,0.0,meteohub,2013-01-23 07:28:00,
2013-01-23 02:34:00,7.3,-1.7,30.15,WNW,289,2.0,7.0,66,0.00,,,0.00,0.0,meteohub,2013-01-23 07:34:00,
2013-01-23 02:39:00,7.3,-2.0,30.15,NW,317,0.0,7.0,65,0.00,,,0.00,0.0,meteohub,2013-01-23 07:39:00,
2013-01-23 02:44:00,7.2,-2.2,30.16,NW,318,7.0,7.0,65,0.00,,,0.00,0.0,meteohub,2013-01-23 07:44:00,
2013-01-23 02:49:00,7.2,-2.2,30.16,NW,310,0.0,10.0,65,0.00,,,0.00,0.0,meteohub,2013-01-23 07:49:00,
2013-01-23 02:54:00,7.2,-2.2,30.16,NNW,328,0.0,10.0,65,0.00,,,0.00,0.0,meteohub,2013-01-23 07:54:00,
2013-01-23 02:59:00,7.0,-2.4,30.16,WNW,300,1.0,10.0,65,0.00,,,0.00,0.0,meteohub,2013-01-23 07:59:00,
2013-01-23 03:05:00,7.0,-2.4,30.16,WNW,293,5.0,10.0,65,0.00,,,0.00,0.0,meteohub,2013-01-23 08:05:00,
2013-01-23 03:10:00,6.8,-2.4,30.16,WNW,302,4.0,6.0,65,0.00,,,0.00,0.0,meteohub,2013-01-23 08:10:00,
2013-01-23 03:15:00,6.6,-2.9,30.16,West,268,4.0,6.0,64,0.00,,,0.00,0.0,meteohub,2013-01-23 08:15:00,
2013-01-23 03:21:00,6.4,-3.1,30.16,WSW,238,0.0,9.0,64,0.00,,,0.00,0.0,meteohub,2013-01-23 08:21:00,
2013-01-23 03:26:00,6.4,-3.1,30.16,WSW,238,0.0,9.0,64,0.00,,,0.00,0.0,meteohub,2013-01-23 08:26:00,
2013-01-23 03:31:00,6.4,-3.1,30.17,WNW,302,1.0,9.0,64,0.00,,,0.00,0.0,meteohub,2013-01-23 08:31:00,
2013-01-23 03:37:00,6.3,-3.3,30.17,WNW,300,0.0,5.0,64,0.00,,,0.00,0.0,meteohub,2013-01-23 08:37:00,
2013-01-23 03:42:00,6.3,-3.3,30.16,West,272,3.0,5.0,64,0.00,,,0.00,0.0,meteohub,2013-01-23 08:42:00,
2013-01-23 03:47:00,6.1,-3.8,30.16,NW,309,2.0,9.0,63,0.00,,,0.00,0.0,meteohub,2013-01-23 08:47:00,
2013-01-23 03:52:00,6.1,-3.8,30.16,NW,306,0.0,9.0,63,0.00,,,0.00,0.0,meteohub,2013-01-23 08:52:00,
2013-01-23 03:57:00,6.1,-3.8,30.17,West,267,0.0,9.0,63,0.00,,,0.00,0.0,meteohub,2013-01-23 08:57:00,
2013-01-23 04:02:00,6.1,-3.8,30.16,West,267,0.0,9.0,63,0.00,,,0.00,0.0,meteohub,2013-01-23 09:02:00,
2013-01-23 04:07:00,5.9,-4.0,30.17,West,267,0.0,9.0,63,0.00,,,0.00,0.0,meteohub,2013-01-23 09:07:00,
2013-01-23 04:12:00,5.7,-3.8,30.17,West,267,0.0,3.0,64,0.00,,,0.00,0.0,meteohub,2013-01-23 09:12:00,
2013-01-23 04:17:00,5.5,-4.0,30.17,West,280,0.0,5.0,64,0.00,,,0.00,0.0,meteohub,2013-01-23 09:17:00,
2013-01-23 04:23:00,5.5,-4.0,30.17,West,279,0.0,5.0,64,0.00,,,0.00,0.0,meteohub,2013-01-23 09:23:00,
2013-01-23 04:28:00,5.4,-3.8,30.17,West,280,1.0,5.0,65,0.00,,,0.00,0.0,meteohub,2013-01-23 09:28:00,
2013-01-23 04:33:00,5.4,-3.8,30.17,WNW,291,0.0,5.0,65,0.00,,,0.00,0.0,meteohub,2013-01-23 09:33:00,
2013-01-23 04:38:00,5.2,-4.0,30.17,West,272,1.0,3.0,65,0.00,,,0.00,0.0,meteohub,2013-01-23 09:38:00,
2013-01-23 04:44:00,5.0,-4.2,30.17,West,272,0.0,3.0,65,0.00,,,0.00,0.0,meteohub,2013-01-23 09:44:00,
2013-01-23 04:49:00,4.8,-4.0,30.17,WSW,258,5.0,5.0,66,0.00,,,0.00,0.0,meteohub,2013-01-23 09:49:00,
2013-01-23 04:54:00,4.8,-4.0,30.17,West,259,0.0,4.0,66,0.00,,,0.00,0.0,meteohub,2013-01-23 09:54:00,
2013-01-23 05:00:00,4.8,-3.6,30.17,West,273,0.0,5.0,67,0.00,,,0.00,0.0,meteohub,2013-01-23 10:00:00,
2013-01-23 05:01:00,4.6,-3.8,30.17,West,273,0.0,5.0,67,0.00,,,0.00,0.0,meteohub,2013-01-23 10:01:00,
2013-01-23 05:07:00,4.6,-3.8,30.17,West,273,0.0,5.0,67,0.00,,,0.00,0.0,meteohub,2013-01-23 10:07:00,
2013-01-23 05:17:00,4.5,-3.8,30.17,West,273,0.0,4.0,68,0.00,,,0.00,0.0,meteohub,2013-01-23 10:17:00,
2013-01-23 05:22:00,4.5,-3.8,30.17,West,273,0.0,4.0,68,0.00,,,0.00,0.0,meteohub,2013-01-23 10:22:00,
2013-01-23 05:27:00,4.3,-4.0,30.18,West,273,0.0,4.0,68,0.00,,,0.00,0.0,meteohub,2013-01-23 10:27:00,
2013-01-23 05:32:00,3.9,-4.0,30.18,West,273,0.0,0.0,69,0.00,,,0.00,0.0,meteohub,2013-01-23 10:32:00,
2013-01-23 05:37:00,3.7,-4.2,30.18,West,273,0.0,0.0,69,0.00,,,0.00,0.0,meteohub,2013-01-23 10:37:00,
2013-01-23 05:42:00,3.7,-4.2,30.18,West,273,0.0,0.0,69,0.00,,,0.00,0.0,meteohub,2013-01-23 10:42:00,
2013-01-23 05:47:00,3.6,-4.0,30.18,West,273,0.0,0.0,70,0.00,,,0.00,0.0,meteohub,2013-01-23 10:47:00,
2013-01-23 05:52:00,3.4,-4.2,30.18,West,273,0.0,0.0,70,0.00,,,0.00,0.0,meteohub,2013-01-23 10:52:00,
2013-01-23 05:58:00,3.2,-4.4,30.18,West,273,0.0,0.0,70,0.00,,,0.00,0.0,meteohub,2013-01-23 10:58:00,
2013-01-23 06:03:00,3.0,-4.2,30.18,West,273,0.0,0.0,71,0.00,,,0.00,0.0,meteohub,2013-01-23 11:03:00,
2013-01-23 06:09:00,3.0,-4.2,30.18,West,273,0.0,0.0,71,0.00,,,0.00,0.0,meteohub,2013-01-23 11:09:00,
2013-01-23 06:14:00,2.8,-4.2,30.18,West,273,0.0,0.0,72,0.00,,,0.00,0.0,meteohub,2013-01-23 11:14:00,
2013-01-23 06:19:00,2.8,-4.2,30.19,West,273,0.0,0.0,72,0.00,,,0.00,0.0,meteohub,2013-01-23 11:19:00,
2013-01-23 06:24:00,2.8,-3.8,30.19,West,273,0.0,0.0,73,0.00,,,0.00,0.0,meteohub,2013-01-23 11:24:00,
2013-01-23 06:30:00,2.8,-3.8,30.19,West,273,0.0,0.0,73,0.00,,,0.00,0.0,meteohub,2013-01-23 11:30:00,
2013-01-23 06:35:00,2.8,-3.8,30.19,West,273,0.0,0.0,73,0.00,,,0.00,0.0,meteohub,2013-01-23 11:35:00,
2013-01-23 06:40:00,2.8,-3.6,30.19,West,273,0.0,0.0,74,0.00,,,0.00,0.0,meteohub,2013-01-23 11:40:00,
2013-01-23 06:45:00,2.8,-3.3,30.19,West,273,0.0,0.0,75,0.00,,,0.00,0.0,meteohub,2013-01-23 11:45:00,
2013-01-23 06:50:00,2.8,-3.3,30.19,West,273,0.0,0.0,75,0.00,,,0.00,0.0,meteohub,2013-01-23 11:50:00,
2013-01-23 06:55:00,2.7,-3.5,30.19,West,273,0.0,0.0,75,0.00,,,0.00,0.0,meteohub,2013-01-23 11:55:00,
2013-01-23 07:00:00,2.7,-3.5,30.19,West,273,0.0,0.0,75,0.00,,,0.00,0.0,meteohub,2013-01-23 12:00:00,
2013-01-23 07:06:00,2.7,-3.5,30.19,West,273,1.0,0.0,75,0.00,,,0.00,0.0,meteohub,2013-01-23 12:06:00,
2013-01-23 07:12:00,2.7,-3.5,30.19,West,273,0.0,2.0,75,0.00,,,0.00,0.0,meteohub,2013-01-23 12:12:00,
2013-01-23 07:17:00,2.7,-3.1,30.20,West,273,0.0,2.0,76,0.00,,,0.00,0.0,meteohub,2013-01-23 12:17:00,
2013-01-23 07:22:00,2.7,-3.1,30.20,West,273,0.0,2.0,76,0.00,,,0.00,0.0,meteohub,2013-01-23 12:22:00,
2013-01-23 07:28:00,2.7,-3.1,30.19,West,273,0.0,2.0,76,0.00,,,0.00,0.0,meteohub,2013-01-23 12:28:00,
2013-01-23 07:33:00,2.7,-3.1,30.19,West,273,0.0,2.0,76,0.00,,,0.00,7.0,meteohub,2013-01-23 12:33:00,
2013-01-23 07:38:00,2.8,-2.7,30.20,West,273,0.0,2.0,77,0.00,,,0.00,9.0,meteohub,2013-01-23 12:38:00,
2013-01-23 07:43:00,2.8,-2.7,30.20,West,273,0.0,2.0,77,0.00,,,0.00,12.0,meteohub,2013-01-23 12:43:00,
2013-01-23 07:49:00,3.0,-2.6,30.20,West,273,0.0,2.0,77,0.00,,,0.00,12.0,meteohub,2013-01-23 12:49:00,
2013-01-23 07:54:00,3.2,-2.4,30.20,West,273,0.0,1.0,77,0.00,,,0.00,9.0,meteohub,2013-01-23 12:54:00,
2013-01-23 08:00:00,3.4,-2.2,30.20,West,273,0.0,1.0,77,0.00,,,0.00,9.0,meteohub,2013-01-23 13:00:00,
2013-01-23 08:05:00,3.4,-2.2,30.20,WSW,250,1.0,1.0,77,0.00,,,0.00,53.0,meteohub,2013-01-23 13:05:00,
2013-01-23 08:10:00,3.4,-2.2,30.21,NNE,23,0.0,1.0,77,0.00,,,0.00,25.0,meteohub,2013-01-23 13:10:00,
2013-01-23 08:15:00,3.6,-2.0,30.21,NE,40,0.0,1.0,77,0.00,,,0.00,32.0,meteohub,2013-01-23 13:15:00,
2013-01-23 08:21:00,3.7,-2.2,30.21,WNW,289,1.0,4.0,76,0.00,,,0.00,16.0,meteohub,2013-01-23 13:21:00,
2013-01-23 08:26:00,3.9,-2.0,30.21,West,271,0.0,4.0,76,0.00,,,0.00,19.0,meteohub,2013-01-23 13:26:00,
2013-01-23 08:31:00,4.3,-1.8,30.21,WSW,244,0.0,4.0,75,0.00,,,0.00,18.0,meteohub,2013-01-23 13:31:00,
2013-01-23 08:37:00,4.5,-2.0,30.21,West,269,3.0,4.0,74,0.00,,,0.00,16.0,meteohub,2013-01-23 13:37:00,
2013-01-23 08:42:00,4.6,-2.0,30.22,WNW,286,5.0,7.0,73,0.00,,,0.00,18.0,meteohub,2013-01-23 13:42:00,
2013-01-23 08:47:00,4.6,-2.7,30.21,WNW,287,2.0,7.0,71,0.00,,,0.00,21.0,meteohub,2013-01-23 13:47:00,
2013-01-23 08:52:00,4.8,-2.7,30.22,WNW,297,3.0,7.0,70,0.00,,,0.00,19.0,meteohub,2013-01-23 13:52:00,
2013-01-23 08:57:00,5.0,-2.6,30.22,NW,319,3.0,11.0,70,0.00,,,0.00,25.0,meteohub,2013-01-23 13:57:00,
2013-01-23 09:02:00,5.0,-2.9,30.22,NW,307,4.0,11.0,69,0.00,,,0.00,33.0,meteohub,2013-01-23 14:02:00,
2013-01-23 09:07:00,5.2,-3.1,30.22,WNW,296,2.0,11.0,68,0.00,,,0.00,53.0,meteohub,2013-01-23 14:07:00,
2013-01-23 09:12:00,5.4,-2.9,30.22,NNE,14,4.0,10.0,68,0.00,,,0.00,72.0,meteohub,2013-01-23 14:12:00,
2013-01-23 09:17:00,5.5,-2.7,30.22,WNW,286,3.0,10.0,68,0.00,,,0.00,35.0,meteohub,2013-01-23 14:17:00,
2013-01-23 09:22:00,5.7,-2.6,30.22,ESE,113,0.0,10.0,68,0.00,,,0.00,84.0,meteohub,2013-01-23 14:22:00,
2013-01-23 09:27:00,5.9,-2.4,30.22,NW,325,3.0,10.0,68,0.00,,,0.00,104.0,meteohub,2013-01-23 14:27:00,
2013-01-23 09:32:00,6.1,-2.6,30.22,WNW,300,6.0,10.0,67,0.00,,,0.00,100.0,meteohub,2013-01-23 14:32:00,
2013-01-23 09:37:00,6.3,-2.4,30.23,WNW,282,5.0,10.0,67,0.00,,,0.00,130.0,meteohub,2013-01-23 14:37:00,
2013-01-23 09:42:00,6.4,-2.6,30.23,WNW,302,6.0,12.0,66,0.00,,,0.00,58.0,meteohub,2013-01-23 14:42:00,
2013-01-23 09:47:00,6.4,-2.6,30.23,North,5,5.0,12.0,66,0.00,,,0.00,176.0,meteohub,2013-01-23 14:47:00,
2013-01-23 09:52:00,6.3,-2.9,30.23,East,92,3.0,16.0,65,0.00,,,0.00,171.0,meteohub,2013-01-23 14:52:00,
2013-01-23 09:57:00,6.4,-3.1,30.23,SSW,198,2.0,16.0,64,0.00,,,0.00,88.0,meteohub,2013-01-23 14:57:00,
2013-01-23 10:02:00,6.6,-2.9,30.23,WNW,297,3.0,16.0,64,0.00,,,0.00,214.0,meteohub,2013-01-23 15:02:00,
2013-01-23 10:07:00,6.8,-2.7,30.23,WNW,286,3.0,16.0,64,0.00,,,0.00,274.0,meteohub,2013-01-23 15:07:00,
2013-01-23 10:12:00,7.0,-2.9,30.23,NW,313,10.0,16.0,63,0.00,,,0.00,380.0,meteohub,2013-01-23 15:12:00,
2013-01-23 10:17:00,7.0,-2.9,30.23,West,277,2.0,16.0,63,0.00,,,0.00,399.0,meteohub,2013-01-23 15:17:00,
2013-01-23 10:22:00,7.2,-2.7,30.23,WNW,284,1.0,16.0,63,0.00,,,0.00,432.0,meteohub,2013-01-23 15:22:00,
2013-01-23 10:27:00,7.3,-2.6,30.23,WSW,252,0.0,16.0,63,0.00,,,0.00,443.0,meteohub,2013-01-23 15:27:00,
2013-01-23 10:32:00,7.5,-2.4,30.23,WNW,285,2.0,14.0,63,0.00,,,0.00,450.0,meteohub,2013-01-23 15:32:00,
2013-01-23 10:37:00,7.9,-2.0,30.23,North,5,1.0,14.0,63,0.00,,,0.00,443.0,meteohub,2013-01-23 15:37:00,
2013-01-23 10:42:00,7.9,-2.4,30.23,WNW,284,1.0,11.0,62,0.00,,,0.00,452.0,meteohub,2013-01-23 15:42:00,
2013-01-23 10:47:00,8.1,-1.8,30.23,NW,306,2.0,11.0,63,0.00,,,0.00,446.0,meteohub,2013-01-23 15:47:00,
2013-01-23 10:52:00,8.1,-2.2,30.23,West,281,2.0,11.0,62,0.00,,,0.00,459.0,meteohub,2013-01-23 15:52:00,
2013-01-23 10:57:00,8.2,-1.8,30.23,NW,323,0.0,12.0,63,0.00,,,0.00,469.0,meteohub,2013-01-23 15:57:00,
2013-01-23 11:02:00,8.4,-1.8,30.22,West,267,0.0,12.0,62,0.00,,,0.00,492.0,meteohub,2013-01-23 16:02:00,
2013-01-23 11:07:00,8.6,-1.7,30.22,WNW,301,0.0,12.0,62,0.00,,,0.00,413.0,meteohub,2013-01-23 16:07:00,
2013-01-23 11:12:00,8.1,-2.6,30.22,NW,304,3.0,15.0,61,0.00,,,0.00,434.0,meteohub,2013-01-23 16:12:00,
2013-01-23 11:17:00,8.1,-2.2,30.22,West,265,2.0,15.0,62,0.00,,,0.00,482.0,meteohub,2013-01-23 16:17:00,
2013-01-23 11:23:00,8.2,-2.0,30.22,NW,309,0.0,15.0,62,0.00,,,0.00,457.0,meteohub,2013-01-23 16:23:00,
2013-01-23 11:28:00,8.4,-1.8,30.22,ESE,104,5.0,15.0,62,0.00,,,0.00,455.0,meteohub,2013-01-23 16:28:00,
2013-01-23 11:33:00,8.8,-1.7,30.21,West,271,4.0,15.0,62,0.00,,,0.00,278.0,meteohub,2013-01-23 16:33:00,
2013-01-23 11:39:00,8.8,-1.7,30.21,WNW,302,2.0,16.0,62,0.00,,,0.00,155.0,meteohub,2013-01-23 16:39:00,
2013-01-23 11:44:00,8.6,-2.0,30.21,WNW,300,2.0,16.0,61,0.00,,,0.00,214.0,meteohub,2013-01-23 16:44:00,
2013-01-23 11:49:00,8.6,-2.0,30.20,NNW,335,5.0,16.0,61,0.00,,,0.00,424.0,meteohub,2013-01-23 16:49:00,
2013-01-23 11:55:00,9.0,-1.5,30.20,West,272,1.0,15.0,62,0.00,,,0.00,401.0,meteohub,2013-01-23 16:55:00,
2013-01-23 12:00:00,9.1,-1.7,30.20,NW,318,13.0,15.0,61,0.00,,,0.00,315.0,meteohub,2013-01-23 17:00:00,
2013-01-23 12:05:00,9.1,-1.7,30.20,NNW,338,10.0,15.0,61,0.00,,,0.00,415.0,meteohub,2013-01-23 17:05:00,
2013-01-23 12:11:00,9.1,-1.7,30.19,West,275,0.0,14.0,61,0.00,,,0.00,292.0,meteohub,2013-01-23 17:11:00,
2013-01-23 12:16:00,9.3,-1.5,30.19,North,355,4.0,14.0,61,0.00,,,0.00,121.0,meteohub,2013-01-23 17:16:00,
2013-01-23 12:21:00,9.5,-1.3,30.19,NW,319,7.0,14.0,61,0.00,,,0.00,179.0,meteohub,2013-01-23 17:21:00,
2013-01-23 12:26:00,9.3,-1.8,30.19,NW,304,4.0,14.0,60,0.00,,,0.00,250.0,meteohub,2013-01-23 17:26:00,
2013-01-23 12:32:00,9.3,-1.8,30.18,NW,315,5.0,14.0,60,0.00,,,0.00,352.0,meteohub,2013-01-23 17:32:00,
2013-01-23 12:37:00,9.5,-1.7,30.18,NW,312,2.0,16.0,60,0.00,,,0.00,153.0,meteohub,2013-01-23 17:37:00,
2013-01-23 12:42:00,9.7,-1.8,30.18,WNW,286,9.0,16.0,59,0.00,,,0.00,76.0,meteohub,2013-01-23 17:42:00,
2013-01-23 12:47:00,9.5,-2.0,30.17,WNW,290,8.0,19.0,59,0.00,,,0.00,322.0,meteohub,2013-01-23 17:47:00,
2013-01-23 12:52:00,9.7,-2.2,30.17,WNW,300,10.0,19.0,58,0.00,,,0.00,49.0,meteohub,2013-01-23 17:52:00,
2013-01-23 12:57:00,9.7,-2.2,30.17,WSW,247,9.0,19.0,58,0.00,,,0.00,330.0,meteohub,2013-01-23 17:57:00,
2013-01-23 13:02:00,9.9,-2.4,30.17,NW,313,3.0,19.0,57,0.00,,,0.00,403.0,meteohub,2013-01-23 18:02:00,
2013-01-23 13:07:00,10.2,-1.7,30.17,SW,233,10.0,19.0,58,0.00,,,0.00,285.0,meteohub,2013-01-23 18:07:00,
2013-01-23 13:12:00,10.6,-1.7,30.17,WNW,284,9.0,17.0,57,0.00,,,0.00,457.0,meteohub,2013-01-23 18:12:00,
2013-01-23 13:17:00,10.9,-1.7,30.17,NNW,329,2.0,17.0,56,0.00,,,0.00,452.0,meteohub,2013-01-23 18:17:00,
2013-01-23 13:22:00,10.9,-2.0,30.17,WNW,288,14.0,15.0,55,0.00,,,0.00,408.0,meteohub,2013-01-23 18:22:00,
2013-01-23 13:27:00,11.1,-1.8,30.17,West,265,5.0,16.0,55,0.00,,,0.00,357.0,meteohub,2013-01-23 18:27:00,
2013-01-23 13:32:00,11.3,-2.2,30.17,SW,226,6.0,16.0,54,0.00,,,0.00,380.0,meteohub,2013-01-23 18:32:00,
2013-01-23 13:37:00,11.5,-1.5,30.17,WNW,293,7.0,16.0,55,0.00,,,0.00,406.0,meteohub,2013-01-23 18:37:00,
2013-01-23 13:42:00,11.7,-2.2,30.17,WNW,288,5.0,16.0,53,0.00,,,0.00,406.0,meteohub,2013-01-23 18:42:00,
2013-01-23 13:47:00,11.5,-2.7,30.17,NW,315,7.0,17.0,52,0.00,,,0.00,253.0,meteohub,2013-01-23 18:47:00,
2013-01-23 13:52:00,11.3,-2.9,30.17,NW,311,2.0,17.0,52,0.00,,,0.00,383.0,meteohub,2013-01-23 18:52:00,
2013-01-23 13:57:00,11.5,-2.4,30.17,NNW,333,4.0,17.0,53,0.00,,,0.00,401.0,meteohub,2013-01-23 18:57:00,
2013-01-23 14:02:00,11.5,-1.5,30.17,NW,310,5.0,17.0,55,0.00,,,0.00,371.0,meteohub,2013-01-23 19:02:00,
2013-01-23 14:08:00,11.3,-2.6,30.17,NW,312,12.0,17.0,53,0.00,,,0.00,339.0,meteohub,2013-01-23 19:08:00,
2013-01-23 14:13:00,11.5,-2.4,30.17,WNW,302,5.0,17.0,53,0.00,,,0.00,267.0,meteohub,2013-01-23 19:13:00,
2013-01-23 14:18:00,11.5,-2.4,30.17,WNW,291,3.0,17.0,53,0.00,,,0.00,227.0,meteohub,2013-01-23 19:18:00,
2013-01-23 14:23:00,10.9,-3.6,30.17,SSW,209,3.0,17.0,51,0.00,,,0.00,225.0,meteohub,2013-01-23 19:23:00,
2013-01-23 14:29:00,10.8,-3.5,30.17,NW,306,13.0,20.0,52,0.00,,,0.00,188.0,meteohub,2013-01-23 19:29:00,
2013-01-23 14:34:00,10.4,-4.2,30.17,NW,317,3.0,20.0,51,0.00,,,0.00,232.0,meteohub,2013-01-23 19:34:00,
2013-01-23 14:39:00,10.0,-4.0,30.17,WSW,239,7.0,20.0,52,0.00,,,0.00,225.0,meteohub,2013-01-23 19:39:00,
2013-01-23 14:45:00,10.2,-4.0,30.18,NNW,340,7.0,20.0,52,0.00,,,0.00,163.0,meteohub,2013-01-23 19:45:00,
2013-01-23 14:50:00,10.2,-4.0,30.17,WNW,296,6.0,16.0,52,0.00,,,0.00,158.0,meteohub,2013-01-23 19:50:00,
2013-01-23 14:55:00,10.0,-4.0,30.18,NW,312,0.0,16.0,52,0.00,,,0.00,195.0,meteohub,2013-01-23 19:55:00,
2013-01-23 15:01:00,10.2,-4.0,30.17,NW,306,0.0,16.0,52,0.00,,,0.00,192.0,meteohub,2013-01-23 20:01:00,
2013-01-23 15:06:00,10.2,-4.0,30.18,West,279,5.0,16.0,52,0.00,,,0.00,179.0,meteohub,2013-01-23 20:06:00,
2013-01-23 15:11:00,10.2,-4.0,30.18,NW,310,3.0,15.0,52,0.00,,,0.00,214.0,meteohub,2013-01-23 20:11:00,
2013-01-23 15:17:00,10.2,-4.0,30.18,WNW,292,12.0,15.0,52,0.00,,,0.00,244.0,meteohub,2013-01-23 20:17:00,
2013-01-23 15:22:00,10.4,-3.8,30.18,NW,311,7.0,16.0,52,0.00,,,0.00,236.0,meteohub,2013-01-23 20:22:00,
2013-01-23 15:27:00,10.6,-4.0,30.18,WNW,298,6.0,16.0,51,0.00,,,0.00,172.0,meteohub,2013-01-23 20:27:00,
2013-01-23 15:32:00,10.6,-4.0,30.18,West,259,5.0,16.0,51,0.00,,,0.00,114.0,meteohub,2013-01-23 20:32:00,
2013-01-23 15:37:00,10.0,-4.5,30.18,WNW,301,13.0,16.0,51,0.00,,,0.00,79.0,meteohub,2013-01-23 20:37:00,
2013-01-23 15:43:00,9.9,-4.7,30.18,NW,319,6.0,16.0,51,0.00,,,0.00,69.0,meteohub,2013-01-23 20:43:00,
2013-01-23 15:48:00,9.7,-4.9,30.18,NW,304,4.0,16.0,51,0.00,,,0.00,63.0,meteohub,2013-01-23 20:48:00,
2013-01-23 15:53:00,9.5,-4.9,30.18,WSW,253,2.0,16.0,51,0.00,,,0.00,69.0,meteohub,2013-01-23 20:53:00,
2013-01-23 15:58:00,9.3,-4.7,30.18,WSW,252,7.0,13.0,52,0.00,,,0.00,70.0,meteohub,2013-01-23 20:58:00,
2013-01-23 16:03:00,9.1,-4.5,30.18,WNW,284,5.0,13.0,53,0.00,,,0.00,70.0,meteohub,2013-01-23 21:03:00,
2013-01-23 16:08:00,9.1,-4.5,30.18,NW,304,9.0,13.0,53,0.00,,,0.00,54.0,meteohub,2013-01-23 21:08:00,
2013-01-23 16:14:00,9.1,-4.5,30.18,NW,316,0.0,13.0,53,0.00,,,0.00,39.0,meteohub,2013-01-23 21:14:00,
2013-01-23 16:19:00,9.0,-4.7,30.18,West,271,2.0,13.0,53,0.00,,,0.00,35.0,meteohub,2013-01-23 21:19:00,
2013-01-23 16:25:00,8.8,-4.5,30.18,West,262,4.0,13.0,54,0.00,,,0.00,32.0,meteohub,2013-01-23 21:25:00,
2013-01-23 16:30:00,8.8,-4.5,30.18,West,273,4.0,13.0,54,0.00,,,0.00,26.0,meteohub,2013-01-23 21:30:00,
2013-01-23 16:35:00,8.6,-4.7,30.18,WSW,257,2.0,13.0,54,0.00,,,0.00,21.0,meteohub,2013-01-23 21:35:00,
2013-01-23 16:40:00,8.4,-4.7,30.18,WNW,284,10.0,13.0,54,0.00,,,0.00,14.0,meteohub,2013-01-23 21:40:00,
2013-01-23 16:46:00,8.2,-4.9,30.19,West,274,1.0,13.0,54,0.00,,,0.00,7.0,meteohub,2013-01-23 21:46:00,
2013-01-23 16:51:00,8.2,-4.5,30.19,NW,317,4.0,13.0,55,0.00,,,0.00,5.0,meteohub,2013-01-23 21:51:00,
2013-01-23 16:56:00,8.1,-4.7,30.19,WNW,302,8.0,13.0,55,0.00,,,0.00,0.0,meteohub,2013-01-23 21:56:00,
2013-01-23 17:01:00,8.1,-4.4,30.19,NW,306,1.0,13.0,56,0.00,,,0.00,0.0,meteohub,2013-01-23 22:01:00,
2013-01-23 17:06:00,8.1,-4.4,30.19,West,268,0.0,13.0,56,0.00,,,0.00,0.0,meteohub,2013-01-23 22:06:00,
2013-01-23 17:11:00,7.9,-4.5,30.19,West,279,2.0,13.0,56,0.00,,,0.00,0.0,meteohub,2013-01-23 22:11:00,
2013-01-23 17:17:00,7.7,-4.7,30.19,South,180,2.0,13.0,56,0.00,,,0.00,0.0,meteohub,2013-01-23 22:17:00,
2013-01-23 17:22:00,7.7,-4.7,30.19,West,260,1.0,13.0,56,0.00,,,0.00,0.0,meteohub,2013-01-23 22:22:00,
2013-01-23 17:27:00,7.5,-4.5,30.19,NW,306,2.0,12.0,57,0.00,,,0.00,0.0,meteohub,2013-01-23 22:27:00,
2013-01-23 17:32:00,7.5,-4.5,30.19,West,267,3.0,12.0,57,0.00,,,0.00,0.0,meteohub,2013-01-23 22:32:00,
2013-01-23 17:38:00,7.3,-4.4,30.19,WNW,294,5.0,10.0,58,0.00,,,0.00,0.0,meteohub,2013-01-23 22:38:00,
2013-01-23 17:43:00,7.3,-4.4,30.20,West,269,4.0,10.0,58,0.00,,,0.00,0.0,meteohub,2013-01-23 22:43:00,
2013-01-23 17:48:00,7.3,-4.4,30.20,NW,315,0.0,9.0,58,0.00,,,0.00,0.0,meteohub,2013-01-23 22:48:00,
2013-01-23 17:54:00,7.3,-4.4,30.20,WNW,288,2.0,9.0,58,0.00,,,0.00,0.0,meteohub,2013-01-23 22:54:00,
2013-01-23 17:59:00,7.2,-4.2,30.20,WNW,286,1.0,9.0,59,0.00,,,0.00,0.0,meteohub,2013-01-23 22:59:00,
2013-01-23 18:04:00,7.2,-4.2,30.20,WNW,285,2.0,9.0,59,0.00,,,0.00,0.0,meteohub,2013-01-23 23:04:00,
2013-01-23 18:10:00,7.2,-4.2,30.20,WNW,284,0.0,10.0,59,0.00,,,0.00,0.0,meteohub,2013-01-23 23:10:00,
2013-01-23 18:15:00,7.2,-4.2,30.20,WSW,243,1.0,10.0,59,0.00,,,0.00,0.0,meteohub,2013-01-23 23:15:00,
2013-01-23 18:20:00,7.2,-4.2,30.20,WSW,254,6.0,10.0,59,0.00,,,0.00,0.0,meteohub,2013-01-23 23:20:00,
2013-01-23 18:26:00,7.2,-4.2,30.20,West,275,2.0,10.0,59,0.00,,,0.00,0.0,meteohub,2013-01-23 23:26:00,
2013-01-23 18:31:00,7.0,-4.4,30.20,NW,308,4.0,10.0,59,0.00,,,0.00,0.0,meteohub,2013-01-23 23:31:00,
2013-01-23 18:36:00,7.0,-4.4,30.20,WNW,301,6.0,10.0,59,0.00,,,0.00,0.0,meteohub,2013-01-23 23:36:00,
2013-01-23 18:42:00,7.0,-4.4,30.20,WNW,286,0.0,10.0,59,0.00,,,0.00,0.0,meteohub,2013-01-23 23:42:00,
2013-01-23 18:47:00,7.0,-4.4,30.20,West,267,3.0,9.0,59,0.00,,,0.00,0.0,meteohub,2013-01-23 23:47:00,
2013-01-23 18:52:00,7.0,-4.0,30.20,WNW,290,4.0,9.0,60,0.00,,,0.00,0.0,meteohub,2013-01-23 23:52:00,
2013-01-23 18:57:00,7.0,-4.0,30.20,West,277,3.0,9.0,60,0.00,,,0.00,0.0,meteohub,2013-01-23 23:57:00,
2013-01-23 19:02:00,7.0,-4.4,30.20,North,350,3.0,9.0,59,0.00,,,0.00,0.0,meteohub,2013-01-24 00:02:00,
2013-01-23 19:07:00,6.8,-4.2,30.20,WNW,297,0.0,9.0,60,0.00,,,0.00,0.0,meteohub,2013-01-24 00:07:00,
2013-01-23 19:12:00,6.8,-4.2,30.20,North,355,0.0,9.0,60,0.00,,,0.00,0.0,meteohub,2013-01-24 00:12:00,
2013-01-23 19:17:00,6.6,-4.4,30.20,NW,310,0.0,9.0,60,0.00,,,0.00,0.0,meteohub,2013-01-24 00:17:00,
2013-01-23 19:22:00,6.6,-4.4,30.20,WNW,298,2.0,4.0,60,0.00,,,0.00,0.0,meteohub,2013-01-24 00:22:00,
2013-01-23 19:27:00,6.6,-4.0,30.20,West,267,0.0,11.0,61,0.00,,,0.00,0.0,meteohub,2013-01-24 00:27:00,
2013-01-23 19:33:00,6.4,-4.2,30.20,West,267,0.0,11.0,61,0.00,,,0.00,0.0,meteohub,2013-01-24 00:33:00,
2013-01-23 19:38:00,6.4,-4.2,30.20,WNW,289,0.0,11.0,61,0.00,,,0.00,0.0,meteohub,2013-01-24 00:38:00,
2013-01-23 19:43:00,6.4,-4.2,30.20,West,276,0.0,11.0,61,0.00,,,0.00,0.0,meteohub,2013-01-24 00:43:00,
2013-01-23 19:49:00,6.3,-4.4,30.20,WSW,252,0.0,5.0,61,0.00,,,0.00,0.0,meteohub,2013-01-24 00:49:00,
2013-01-23 19:54:00,6.3,-4.0,30.19,WSW,251,0.0,5.0,62,0.00,,,0.00,0.0,meteohub,2013-01-24 00:54:00,
2013-01-23 19:59:00,6.3,-4.0,30.20,WSW,251,0.0,5.0,62,0.00,,,0.00,0.0,meteohub,2013-01-24 00:59:00,
2013-01-23 20:04:00,6.3,-4.0,30.20,WSW,251,0.0,5.0,62,0.00,,,0.00,0.0,meteohub,2013-01-24 01:04:00,
2013-01-23 20:10:00,6.1,-4.2,30.20,West,265,0.0,7.0,62,0.00,,,0.00,0.0,meteohub,2013-01-24 01:10:00,
2013-01-23 20:15:00,6.1,-4.2,30.20,WNW,290,0.0,7.0,62,0.00,,,0.00,0.0,meteohub,2013-01-24 01:15:00,
2013-01-23 20:20:00,6.1,-4.2,30.19,WSW,238,0.0,7.0,62,0.00,,,0.00,0.0,meteohub,2013-01-24 01:20:00,
2013-01-23 20:26:00,6.1,-3.8,30.20,North,11,1.0,7.0,63,0.00,,,0.00,0.0,meteohub,2013-01-24 01:26:00,
2013-01-23 20:31:00,5.9,-4.0,30.19,NW,325,0.0,5.0,63,0.00,,,0.00,0.0,meteohub,2013-01-24 01:31:00,
2013-01-23 20:36:00,5.7,-4.2,30.20,NW,317,0.0,5.0,63,0.00,,,0.00,0.0,meteohub,2013-01-24 01:36:00,
2013-01-23 20:41:00,5.7,-4.2,30.19,NW,317,0.0,5.0,63,0.00,,,0.00,0.0,meteohub,2013-01-24 01:41:00,
2013-01-23 20:47:00,5.7,-4.2,30.19,NNW,327,0.0,2.0,63,0.00,,,0.00,0.0,meteohub,2013-01-24 01:47:00,
2013-01-23 20:52:00,5.5,-4.0,30.19,North,5,0.0,2.0,64,0.00,,,0.00,0.0,meteohub,2013-01-24 01:52:00,
2013-01-23 20:57:00,5.5,-4.0,30.19,North,5,0.0,4.0,64,0.00,,,0.00,0.0,meteohub,2013-01-24 01:57:00,
2013-01-23 21:02:00,5.4,-4.2,30.19,NW,320,0.0,4.0,64,0.00,,,0.00,0.0,meteohub,2013-01-24 02:02:00,
2013-01-23 21:07:00,5.4,-4.2,30.19,North,0,0.0,4.0,64,0.00,,,0.00,0.0,meteohub,2013-01-24 02:07:00,
2013-01-23 21:12:00,5.4,-3.8,30.19,West,263,1.0,4.0,65,0.00,,,0.00,0.0,meteohub,2013-01-24 02:12:00,
2013-01-23 21:17:00,5.2,-4.0,30.19,WNW,290,0.0,4.0,65,0.00,,,0.00,0.0,meteohub,2013-01-24 02:17:00,
2013-01-23 21:22:00,5.2,-4.0,30.19,West,274,0.0,4.0,65,0.00,,,0.00,0.0,meteohub,2013-01-24 02:22:00,
2013-01-23 21:27:00,5.2,-4.0,30.19,West,279,0.0,5.0,65,0.00,,,0.00,0.0,meteohub,2013-01-24 02:27:00,
2013-01-23 21:32:00,5.2,-4.0,30.19,West,279,0.0,5.0,65,0.00,,,0.00,0.0,meteohub,2013-01-24 02:32:00,
2013-01-23 21:37:00,5.0,-4.2,30.19,WNW,294,0.0,5.0,65,0.00,,,0.00,0.0,meteohub,2013-01-24 02:37:00,
2013-01-23 21:42:00,5.0,-4.2,30.19,SSW,212,0.0,5.0,65,0.00,,,0.00,0.0,meteohub,2013-01-24 02:42:00,
2013-01-23 21:48:00,4.8,-4.4,30.19,WSW,252,0.0,6.0,65,0.00,,,0.00,0.0,meteohub,2013-01-24 02:48:00,
2013-01-23 21:53:00,4.8,-4.4,30.19,WSW,252,0.0,6.0,65,0.00,,,0.00,0.0,meteohub,2013-01-24 02:53:00,
2013-01-23 21:58:00,4.8,-4.4,30.19,WSW,252,0.0,6.0,65,0.00,,,0.00,0.0,meteohub,2013-01-24 02:58:00,
2013-01-23 22:04:00,4.8,-4.4,30.19,WSW,252,0.0,6.0,65,0.00,,,0.00,0.0,meteohub,2013-01-24 03:04:00,
2013-01-23 22:09:00,4.6,-4.5,30.19,WSW,252,0.0,4.0,65,0.00,,,0.00,0.0,meteohub,2013-01-24 03:09:00,
2013-01-23 22:14:00,4.6,-4.5,30.19,WSW,252,0.0,4.0,65,0.00,,,0.00,0.0,meteohub,2013-01-24 03:14:00,
2013-01-23 22:20:00,4.5,-4.4,30.19,WSW,252,0.0,2.0,66,0.00,,,0.00,0.0,meteohub,2013-01-24 03:20:00,
2013-01-23 22:25:00,4.3,-4.5,30.19,WSW,252,0.0,2.0,66,0.00,,,0.00,0.0,meteohub,2013-01-24 03:25:00,
2013-01-23 22:30:00,4.3,-4.5,30.19,WSW,252,0.0,0.0,66,0.00,,,0.00,0.0,meteohub,2013-01-24 03:30:00,
2013-01-23 22:36:00,3.9,-4.5,30.19,WSW,252,0.0,1.0,67,0.00,,,0.00,0.0,meteohub,2013-01-24 03:36:00,
2013-01-23 22:41:00,3.7,-4.7,30.19,WSW,252,0.0,1.0,67,0.00,,,0.00,0.0,meteohub,2013-01-24 03:41:00,
2013-01-23 22:46:00,3.6,-4.5,30.19,WSW,252,0.0,0.0,68,0.00,,,0.00,0.0,meteohub,2013-01-24 03:46:00,
2013-01-23 22:52:00,3.2,-4.9,30.19,WSW,252,0.0,0.0,68,0.00,,,0.00,0.0,meteohub,2013-01-24 03:52:00,
2013-01-23 22:57:00,3.0,-5.1,30.19,WSW,252,0.0,0.0,68,0.00,,,0.00,0.0,meteohub,2013-01-24 03:57:00,
2013-01-23 23:02:00,2.8,-5.1,30.19,WSW,252,0.0,0.0,69,0.00,,,0.00,0.0,meteohub,2013-01-24 04:02:00,
2013-01-23 23:07:00,2.7,-5.3,30.19,WSW,252,0.0,0.0,69,0.00,,,0.00,0.0,meteohub,2013-01-24 04:07:00,
2013-01-23 23:12:00,2.5,-5.4,30.19,WSW,252,0.0,0.0,69,0.00,,,0.00,0.0,meteohub,2013-01-24 04:12:00,
2013-01-23 23:17:00,2.1,-5.4,30.19,WSW,252,0.0,0.0,70,0.00,,,0.00,0.0,meteohub,2013-01-24 04:17:00,
2013-01-23 23:22:00,1.9,-5.6,30.19,WSW,252,0.0,0.0,70,0.00,,,0.00,0.0,meteohub,2013-01-24 04:22:00,
2013-01-23 23:27:00,1.8,-5.4,30.19,WSW,252,0.0,0.0,71,0.00,,,0.00,0.0,meteohub,2013-01-24 04:27:00,
2013-01-23 23:32:00,1.4,-5.8,30.19,WSW,252,0.0,0.0,71,0.00,,,0.00,0.0,meteohub,2013-01-24 04:32:00,
2013-01-23 23:37:00,1.2,-5.6,30.19,WSW,252,0.0,0.0,72,0.00,,,0.00,0.0,meteohub,2013-01-24 04:37:00,
2013-01-23 23:42:00,1.0,-5.8,30.19,WSW,252,0.0,0.0,72,0.00,,,0.00,0.0,meteohub,2013-01-24 04:42:00,
2013-01-23 23:48:00,1.0,-5.6,30.19,WSW,252,0.0,0.0,73,0.00,,,0.00,0.0,meteohub,2013-01-24 04:48:00,
2013-01-23 23:53:00,0.9,-5.8,30.19,WSW,252,0.0,0.0,73,0.00,,,0.00,0.0,meteohub,2013-01-24 04:53:00,
2013-01-23 23:58:00,0.9,-5.8,30.19,WSW,252,0.0,0.0,73,0.00,,,0.00,0.0,meteohub,2013-01-24 04:58:00,